Wind_Speed
32 25 31 30 42 35 43 44 51 42 50 35 28 24 20 14 20 20 18 13 10 15 17 12 6 8 11 17 17 15 16 16
34 35 38 38 31 39 42 45 49 46 50 39 32 27 21 18 22 21 22 21 15 15 14 14 5 6 11 17 16 14 11 12
41 47 40 39 41 41 42 41 40 35 34 38 32 31 24 26 22 19 25 19 18 17 17 21 19 10 10 16 16 15 11 11
49 44 44 47 44 42 44 40 38 34 26 14 35 36 29 27 25 17 20 22 23 19 20 24 14 14 12 17 17 17 16 13
56 56 55 57 50 46 45 44 45 44 31 21 29 40 39 35 29 25 29 31 27 23 22 23 18 14 15 18 15 15 17 14
66 56 54 57 53 51 50 52 47 43 42 22 30 45 40 35 32 32 37 43 32 30 26 26 26 23 19 20 19 18 18 13
71 64 53 56 55 55 55 52 54 39 44 36 26 47 45 37 34 28 21 42 28 31 28 33 33 26 17 20 22 21 22 16
76 70 64 59 60 60 57 54 52 48 45 38 32 38 52 51 41 31 25 32 28 26 27 31 29 27 21 20 17 21 23 22
76 70 61 56 67 65 61 58 54 53 44 37 40 34 50 55 52 43 34 38 36 31 33 36 31 30 30 31 24 28 27 23
77 68 66 71 63 63 63 59 55 56 48 41 39 38 43 53 55 51 52 43 38 43 37 41 38 38 35 35 38 33 30 26
79 75 71 69 68 61 62 58 52 56 55 50 42 39 38 49 58 56 51 52 50 49 37 41 47 43 46 44 38 34 33 33
53 73 73 74 68 61 53 59 57 58 57 53 45 43 46 41 51 59 60 57 48 50 52 45 46 49 47 45 39 41 37 36
58 53 65 77 72 54 52 58 62 60 56 53 50 44 42 38 36 50 57 63 65 59 57 60 52 47 48 46 46 49 39 34
66 44 53 63 62 63 55 53 59 59 56 52 50 46 41 36 38 41 45 50 64 67 70 66 63 65 62 55 47 50 49 44
53 35 55 60 57 51 59 53 58 60 58 56 54 52 48 46 39 39 41 51 61 64 69 73 63 59 64 64 56 50 50 43
64 44 46 67 69 56 66 62 61 62 60 60 57 55 53 51 43 45 45 46 51 58 68 77 76 70 64 63 58 54 49 47
66 51 45 69 68 65 65 66 64 62 62 59 57 56 55 48 48 52 52 55 56 52 52 56 59 62 60 68 66 61 65 48
61 50 49 58 66 70 61 59 66 63 56 56 59 52 48 46 49 54 56 54 52 55 52 55 61 65 53 53 62 64 60 55
60 38 48 52 53 58 45 55 61 51 58 54 42 43 51 49 52 55 54 54 53 47 54 61 73 40 56 56 58 57 64 60
Wind_Direction
234 230 237 237 236 234 227 230 233 238 234 237 223 207 213 228 244 268 279 275 322 256 216 224 225 313 273 274 281 277 264 254
232 229 226 226 234 232 230 225 232 239 239 245 230 209 227 243 243 268 275 283 300 312 275 268 283 265 273 272 273 270 272 267
225 230 227 226 226 231 235 233 232 243 245 237 228 215 212 238 241 257 269 278 287 297 289 268 269 274 271 259 268 267 262 271
231 231 232 230 227 234 237 244 251 252 250 232 215 208 211 225 237 243 260 267 269 270 270 263 272 261 275 257 262 260 258 270
224 223 225 228 234 235 232 238 242 248 252 208 215 209 220 235 224 230 241 239 233 250 259 270 276 255 258 253 236 242 255 265
228 231 229 231 228 231 235 233 240 245 253 226 207 203 215 224 226 234 240 236 222 229 244 255 261 261 255 265 240 247 257 256
238 230 218 231 233 233 234 239 242 247 253 249 218 209 215 223 224 247 259 248 228 234 234 242 251 254 254 245 245 249 270 265
232 229 222 219 225 232 236 238 241 244 245 246 236 215 215 220 226 236 236 261 259 243 230 236 242 248 238 239 254 252 261 273
225 226 228 220 227 226 231 236 240 242 241 235 240 224 218 219 227 223 222 238 240 250 238 232 239 245 242 252 253 262 264 260
220 221 222 226 214 219 223 229 234 238 237 230 235 238 219 218 223 228 233 235 243 247 240 236 238 241 243 246 249 256 257 263
217 219 223 225 228 217 216 222 225 236 241 241 225 232 227 219 224 227 228 236 242 242 254 254 239 235 243 248 252 250 248 254
215 217 221 224 228 237 219 220 218 231 237 241 239 227 236 227 224 228 233 233 234 240 246 251 249 252 249 249 246 251 250 252
201 202 214 221 221 222 223 217 217 222 230 237 243 243 233 239 240 231 234 236 239 236 243 249 253 255 253 255 254 252 250 246
201 195 197 212 217 214 218 217 219 222 223 229 235 240 242 243 248 243 242 242 242 246 247 249 253 252 252 251 250 248 247 249
203 192 196 204 212 210 211 213 217 222 226 228 231 233 239 249 243 239 237 242 246 247 249 246 240 240 246 254 247 236 250 251
201 198 191 202 213 213 209 211 215 223 226 229 230 236 244 248 244 250 246 241 237 245 252 250 251 254 252 254 254 258 246 246
207 203 200 210 216 218 215 220 223 225 228 232 235 237 242 247 248 249 248 244 245 246 247 246 247 252 253 246 245 249 247 242
201 207 184 197 216 223 220 224 227 226 229 233 236 239 243 244 247 247 249 251 254 259 261 257 252 241 244 243 238 237 247 240
192 200 205 210 218 223 224 228 223 228 227 224 232 242 251 244 247 251 252 260 264 272 276 267 273 247 214 230 230 230 232 238
Height
5821 5829 5830 5834 5827 5841 5840 5843 5843 5846 5848 5856 5861 5865 5870 5874 5878 5883 5886 5889 5891 5890 5890 5893 5895 5897 5899 5899 5900 5900 5901 5904
5815 5817 5816 5820 5831 5829 5827 5830 5831 5835 5839 5845 5855 5861 5864 5868 5872 5876 5880 5882 5885 5887 5890 5893 5892 5892 5895 5895 5896 5897 5898 5899
5803 5798 5809 5812 5814 5816 5820 5824 5824 5829 5827 5839 5850 5855 5857 5860 5864 5868 5871 5874 5878 5882 5884 5888 5888 5888 5890 5891 5892 5894 5895 5895
5786 5796 5800 5799 5803 5809 5809 5815 5817 5822 5817 5835 5841 5849 5852 5853 5855 5859 5865 5867 5871 5877 5880 5881 5883 5882 5885 5888 5888 5889 5891 5891
5772 5777 5777 5779 5793 5801 5802 5807 5805 5808 5814 5830 5833 5840 5844 5846 5848 5852 5857 5859 5861 5868 5872 5875 5877 5877 5880 5883 5884 5885 5886 5887
5751 5767 5776 5775 5782 5787 5792 5791 5799 5797 5805 5823 5827 5832 5835 5838 5843 5847 5848 5851 5852 5858 5865 5869 5871 5872 5875 5879 5880 5881 5882 5883
5736 5748 5758 5764 5771 5776 5778 5785 5784 5802 5798 5810 5821 5824 5828 5831 5835 5840 5845 5843 5849 5849 5856 5862 5864 5865 5869 5872 5874 5876 5878 5881
5719 5731 5742 5747 5757 5763 5769 5774 5778 5787 5793 5800 5809 5815 5818 5822 5827 5830 5836 5835 5840 5844 5847 5852 5855 5857 5862 5867 5869 5870 5872 5876
5705 5716 5725 5732 5736 5748 5757 5763 5770 5773 5786 5794 5795 5805 5807 5813 5818 5820 5824 5829 5830 5835 5840 5843 5847 5851 5854 5859 5861 5863 5866 5868
5694 5704 5705 5719 5731 5740 5747 5754 5759 5764 5771 5782 5788 5792 5800 5803 5807 5813 5816 5820 5824 5825 5832 5835 5838 5842 5847 5850 5853 5856 5857 5859
5681 5687 5699 5710 5716 5727 5736 5745 5750 5755 5761 5768 5778 5781 5785 5792 5796 5803 5806 5811 5816 5820 5823 5827 5829 5832 5836 5839 5843 5846 5849 5851
5665 5675 5685 5701 5710 5713 5729 5733 5742 5747 5751 5757 5764 5771 5774 5781 5787 5793 5799 5802 5806 5811 5813 5816 5819 5821 5824 5827 5830 5834 5839 5843
5647 5658 5676 5687 5697 5708 5716 5726 5733 5739 5743 5749 5755 5760 5767 5774 5780 5785 5789 5793 5797 5801 5803 5805 5808 5809 5811 5815 5817 5824 5828 5831
5647 5650 5664 5674 5684 5696 5707 5717 5726 5733 5738 5744 5749 5753 5758 5766 5771 5775 5779 5784 5786 5789 5792 5796 5797 5798 5800 5802 5808 5813 5814 5817
5635 5643 5648 5661 5674 5685 5698 5710 5718 5723 5728 5735 5740 5746 5749 5754 5759 5764 5770 5773 5774 5773 5777 5781 5786 5786 5789 5793 5798 5800 5802 5805
5622 5634 5635 5650 5662 5676 5689 5698 5707 5715 5721 5726 5731 5735 5739 5743 5748 5753 5754 5755 5754 5754 5758 5763 5768 5772 5776 5781 5782 5784 5788 5794
5618 5629 5635 5644 5653 5666 5679 5687 5697 5706 5713 5717 5721 5724 5729 5733 5736 5738 5738 5736 5738 5742 5746 5747 5749 5754 5760 5765 5770 5771 5773 5779
5610 5625 5624 5634 5647 5657 5671 5681 5687 5695 5703 5709 5712 5716 5721 5722 5723 5722 5720 5724 5728 5730 5732 5731 5731 5724 5743 5751 5751 5754 5757 5761
5604 5616 5622 5635 5645 5652 5664 5672 5681 5688 5693 5698 5701 5705 5709 5710 5708 5705 5712 5717 5715 5715 5713 5705 5687 5683 5698 5726 5732 5738 5742 5748